Asheville, NC

10:13 PM EST on November 14, 2019 (GMT -0500)
Asheville Regional

Weather History for KAVL - October, 2019

Change the Weather History Date:

Sunday, October 20, 2019

  Actual Average Record
Temperature  
Mean Temperature 62 °F 55 °F  
Max Temperature 72 °F 67 °F 84 °F (2016)
Min Temperature 52 °F 43 °F 25 °F (1972)
Degree Days  
Heating Degree Days 3 10  
Month to date heating degree days 73 148  
Since 1 July heating degree days 75 205  
Cooling Degree Days 0 0  
Month to date cooling degree days 54 7  
Year to date cooling degree days 1327 859  
Growing Degree Days 10 (Base 50)    
Moisture  
Dew Point 52 °F    
Average Humidity 77    
Maximum Humidity 96    
Minimum Humidity 57    
Precipitation  
Precipitation 0.02 in 0.09 in 2.27 in (1877)
Month to date precipitation 2.28 1.91  
Year to date precipitation 44.89 37.33  
Snow  
Snow 0.00 in 0.00 in T in (1989)
Month to date snowfall 0.0 0.0  
Since 1 July snowfall 0.0 0.0  
Since 1 September snowfall 0.0 0.0  
Snow Depth 0.00 in    
Sea Level Pressure  
Sea Level Pressure 29.86 in    
Wind  
Wind Speed 10 mph (NNW)    
Max Wind Speed 26 mph    
Max Gust Speed 32 mph    
Visibility 9 miles    
Events Rain    
T = Trace of Precipitation, MM = Missing Value Source: NWS Daily Summary

Daily Weather History Graph

Daily Weather History Graph

Search for Another Location

Airport or City:

Astronomy

Oct. 20, 2019 Rise Set
Actual Time 7:40 AM EDT 6:48 PM EDT
Civil Twilight 7:14 AM EDT 7:14 PM EDT
Nautical Twilight 6:45 AM EDT 7:44 PM EDT
Astronomical Twilight 6:15 AM EDT 8:13 PM EDT
Moon No Moon Rise 1:59 PM EDT (10/20)
Length of Visible Light 11h 59m
Length of Day
11h 08m
Waning Gibbous, 59% of the Moon is Illuminated
Oct 20
Waning Gibbous
Oct 21
Last Quarter
Oct 27
New
Nov 4
First Quarter
Nov 12
Full

Hourly Weather History & Observations

Time (EDT) Temp. Dew Point Humidity Pressure Visibility Wind Dir Wind Speed Gust Speed Precip Events Conditions
12:21 AM 52.0 °F 48.9 °F 89% 29.86 in 4.0 mi West 3.5 mph - 0.01 in Rain Light Rain
12:54 AM 52.0 °F 50.0 °F 93% 29.82 in 3.0 mi Calm Calm - 0.03 in Rain Light Rain
1:34 AM 52.0 °F 50.0 °F 93% 29.85 in 4.0 mi Calm Calm - 0.01 in Rain Light Rain
1:54 AM 52.0 °F 50.0 °F 93% 29.81 in 4.0 mi Calm Calm - 0.02 in Rain Light Rain
2:54 AM 53.1 °F 50.0 °F 89% 29.78 in 9.0 mi North 5.8 mph - 0.00 in   Overcast
3:11 AM 52.0 °F 50.0 °F 93% 29.81 in 5.0 mi NNW 6.9 mph - N/A   Overcast
3:28 AM 52.0 °F 50.0 °F 93% 29.80 in 10.0 mi NNW 6.9 mph - N/A   Overcast
3:54 AM 53.1 °F 50.0 °F 89% 29.76 in 9.0 mi North 9.2 mph - N/A   Overcast
4:01 AM 53.1 °F 50.0 °F 89% 29.79 in 5.0 mi North 9.2 mph - N/A   Overcast
4:10 AM 53.1 °F 50.0 °F 89% 29.79 in 3.0 mi North 6.9 mph - N/A   Overcast
4:54 AM 53.1 °F 50.0 °F 89% 29.77 in 4.0 mi North 11.5 mph - N/A   Overcast
5:31 AM 53.1 °F 50.0 °F 89% 29.79 in 10.0 mi NNW 12.7 mph - N/A   Overcast
5:50 AM 51.8 °F 50.0 °F 94% 29.79 in 10.0 mi North 5.8 mph - N/A   Overcast
5:54 AM 52.0 °F 50.0 °F 93% 29.77 in 10.0 mi North 5.8 mph - N/A   Overcast
6:18 AM 53.1 °F 50.0 °F 89% 29.80 in 10.0 mi North 8.1 mph - N/A   Overcast
6:38 AM 53.1 °F 50.0 °F 89% 29.80 in 10.0 mi North 11.5 mph 18.4 mph N/A   Mostly Cloudy
6:54 AM 54.0 °F 51.1 °F 90% 29.78 in 10.0 mi North 12.7 mph - N/A   Mostly Cloudy
7:16 AM 54.0 °F 51.1 °F 90% 29.81 in 10.0 mi North 11.5 mph - N/A   Overcast
7:31 AM 54.0 °F 51.1 °F 90% 29.82 in 10.0 mi NNW 16.1 mph 23.0 mph N/A   Overcast
7:36 AM 54.0 °F 51.1 °F 90% 29.82 in 10.0 mi NNW 13.8 mph 23.0 mph N/A   Overcast
7:54 AM 54.0 °F 50.0 °F 86% 29.79 in 10.0 mi North 15.0 mph 20.7 mph N/A   Overcast
8:54 AM 55.9 °F 52.0 °F 87% 29.82 in 10.0 mi North 11.5 mph - N/A   Overcast
9:30 AM 57.0 °F 53.1 °F 87% 29.86 in 10.0 mi NNW 23.0 mph 27.6 mph N/A   Overcast
9:54 AM 57.9 °F 53.1 °F 84% 29.85 in 10.0 mi North 13.8 mph - N/A   Overcast
10:04 AM 57.9 °F 53.1 °F 84% 29.88 in 10.0 mi North 10.4 mph 23.0 mph N/A   Overcast
10:54 AM 61.0 °F 54.0 °F 78% 29.86 in 10.0 mi North 15.0 mph 25.3 mph N/A   Mostly Cloudy
11:11 AM 62.1 °F 54.0 °F 75% 29.90 in 10.0 mi North 9.2 mph 20.7 mph N/A   Mostly Cloudy
11:21 AM 63.0 °F 54.0 °F 72% 29.90 in 10.0 mi North 10.4 mph 19.6 mph N/A   Partly Cloudy
11:54 AM 64.0 °F 54.0 °F 70% 29.87 in 10.0 mi North 20.7 mph 27.6 mph N/A   Clear
12:54 PM 66.9 °F 54.0 °F 63% 29.88 in 10.0 mi NNW 20.7 mph 27.6 mph N/A   Clear
1:54 PM 69.1 °F 54.0 °F 58% 29.88 in 10.0 mi North 13.8 mph - N/A   Scattered Clouds
2:01 PM 68.0 °F 54.0 °F 61% 29.92 in 10.0 mi North 16.1 mph 24.2 mph N/A   Mostly Cloudy
2:17 PM 70.0 °F 55.0 °F 59% 29.92 in 10.0 mi North 12.7 mph - N/A   Mostly Cloudy
2:54 PM 72.0 °F 55.9 °F 57% 29.87 in 10.0 mi North 12.7 mph 24.2 mph N/A   Scattered Clouds
3:54 PM 71.1 °F 55.0 °F 57% 29.88 in 10.0 mi North 10.4 mph - N/A   Partly Cloudy
4:54 PM 70.0 °F 54.0 °F 57% 29.90 in 10.0 mi NNW 15.0 mph - N/A   Clear
5:54 PM 69.1 °F 55.0 °F 61% 29.91 in 10.0 mi NNW 11.5 mph - N/A   Clear
6:54 PM 64.9 °F 55.0 °F 70% 29.92 in 10.0 mi North 5.8 mph - N/A   Clear
7:54 PM 62.1 °F 55.0 °F 78% 29.94 in 10.0 mi North 4.6 mph - N/A   Clear
8:54 PM 61.0 °F 55.0 °F 81% 29.96 in 10.0 mi North 5.8 mph - N/A   Clear
9:54 PM 57.0 °F 54.0 °F 89% 29.98 in 10.0 mi WNW 3.5 mph - N/A   Clear
10:17 PM 55.9 °F 54.0 °F 93% 30.02 in 10.0 mi NNW 4.6 mph - N/A   Mostly Cloudy
10:47 PM 55.9 °F 53.1 °F 90% 30.03 in 10.0 mi NNW 3.5 mph - N/A   Scattered Clouds
10:54 PM 55.9 °F 53.1 °F 90% 29.99 in 10.0 mi Calm Calm - N/A   Partly Cloudy
11:57 PM 55.0 °F 52.0 °F 89% 30.03 in 10.0 mi Calm Calm - N/A   Mostly Cloudy